Weather History for Jesup, GA

Change the Weather History Date:

Wednesday, November 14, 2012

  Actual Average (KLHW) Record (KLHW)
Temperature  
Mean Temperature 53 °F -  
Max Temperature 55 °F 70 °F 83 °F (1993)
Min Temperature 51 °F 45 °F 30 °F (1968)
Degree Days  
Heating Degree Days 12    
Growing Degree Days 3 (Base 50)    
Moisture  
Dew Point 52 °F    
Average Humidity 95    
Maximum Humidity 100    
Minimum Humidity 88    
Precipitation  
Precipitation 0.00 in - - ()
Sea Level Pressure  
Sea Level Pressure 30.27 in    
Wind  
Wind Speed 7 mph (NE)    
Max Wind Speed 12 mph    
Max Gust Speed 10 mph    
Visibility 9 miles    
Events      
Averages and records for this station are not official NWS values.
T = Trace of Precipitation, MM = Missing Value Source: NWS Daily Summary

Daily Weather History Graph

Daily Weather History Graph

Search for Another Location

Airport:

Trip Planner

Search our weather history database for the weather conditions in past years. The results will help you decide how hot, cold, wet, or windy it might be!

Date:

Astronomy

Nov. 14, 2012 Rise Set
Actual Time 6:54 AM EST 5:28 PM EST
Civil Twilight 6:29 AM EST 5:54 PM EST
Nautical Twilight 5:59 AM EST 6:23 PM EST
Astronomical Twilight 5:30 AM EST 6:52 PM EST
Moon 7:39 AM EST (11/14) 6:19 PM EST (11/14)
Length of Visible Light 11h 25m
Length of Day
10h 33m
New Moon, 1% of the Moon is Illuminated
Nov 14
New Moon
Nov 20
First Quarter
Nov 28
Full
Dec 6
Last Quarter
Dec 13
New

Hourly Weather History & Observations

Time (EST) Temp. Dew Point Humidity Pressure Visibility Wind Dir Wind Speed Gust Speed Precip Events Conditions
12:15 AM 55.4 °F 53.6 °F 94% 30.25 in 10.0 mi ENE 5.8 mph - N/A   Overcast
12:35 AM 55.4 °F 53.6 °F 94% 30.25 in 10.0 mi NE 8.1 mph - N/A   Overcast
12:55 AM 55.4 °F 53.6 °F 94% 30.25 in 10.0 mi NE 8.1 mph - N/A   Overcast
1:15 AM 53.6 °F 53.6 °F 100% 30.24 in 10.0 mi NE 8.1 mph - N/A   Overcast
1:35 AM 53.6 °F 51.8 °F 94% 30.24 in 10.0 mi NE 5.8 mph - N/A   Overcast
1:55 AM 53.6 °F 51.8 °F 94% 30.24 in 10.0 mi NE 9.2 mph - N/A   Overcast
2:15 AM 53.6 °F 51.8 °F 94% 30.24 in 10.0 mi ENE 8.1 mph - N/A   Overcast
2:35 AM 53.6 °F 51.8 °F 94% 30.24 in 10.0 mi NE 9.2 mph - N/A   Overcast
2:55 AM 53.6 °F 51.8 °F 94% 30.24 in 10.0 mi ENE 9.2 mph - N/A   Overcast
3:15 AM 53.6 °F 51.8 °F 94% 30.24 in 10.0 mi ENE 5.8 mph - N/A   Overcast
3:35 AM 53.6 °F 51.8 °F 94% 30.25 in 10.0 mi NE 6.9 mph - N/A   Overcast
3:55 AM 53.6 °F 51.8 °F 94% 30.25 in 7.0 mi NE 8.1 mph - N/A   Overcast
4:15 AM 51.8 °F 51.8 °F 100% 30.26 in 4.0 mi ENE 6.9 mph - N/A   Overcast
4:35 AM 51.8 °F 51.8 °F 100% 30.25 in 3.0 mi ENE 5.8 mph - N/A   Overcast
4:55 AM 51.8 °F 51.8 °F 100% 30.26 in 4.0 mi ENE 5.8 mph - N/A   Overcast
5:15 AM 51.8 °F 51.8 °F 100% 30.26 in 4.0 mi NE 5.8 mph - N/A   Overcast
5:35 AM 51.8 °F 51.8 °F 100% 30.26 in 4.0 mi ENE 5.8 mph - N/A   Overcast
5:55 AM 51.8 °F 51.8 °F 100% 30.27 in 4.0 mi NE 5.8 mph - N/A   Overcast
6:15 AM 51.8 °F 51.8 °F 100% 30.27 in 4.0 mi ENE 5.8 mph - N/A   Overcast
6:35 AM 51.8 °F 51.8 °F 100% 30.27 in 5.0 mi ENE 8.1 mph - N/A   Overcast
6:55 AM 51.8 °F 51.8 °F 100% 30.27 in 5.0 mi ENE 5.8 mph - N/A   Overcast
7:15 AM 51.8 °F 51.8 °F 100% 30.28 in 5.0 mi ENE 5.8 mph - N/A   Overcast
7:35 AM 51.8 °F 51.8 °F 100% 30.29 in 7.0 mi ENE 8.1 mph - N/A   Overcast
7:55 AM 51.8 °F 51.8 °F 100% 30.30 in 7.0 mi East 9.2 mph - N/A   Overcast
8:15 AM 51.8 °F 51.8 °F 100% 30.31 in 4.0 mi ENE 8.1 mph - N/A   Overcast
8:35 AM 51.8 °F 51.8 °F 100% 30.30 in 5.0 mi ENE 11.5 mph - N/A   Overcast
8:55 AM 51.8 °F 51.8 °F 100% 30.32 in 7.0 mi ENE 8.1 mph - N/A   Overcast
9:15 AM 51.8 °F 51.8 °F 100% 30.32 in 7.0 mi East 10.4 mph - N/A   Overcast
9:35 AM 51.8 °F 51.8 °F 100% 30.32 in 7.0 mi NE 8.1 mph - N/A   Overcast
9:55 AM 51.8 °F 51.8 °F 100% 30.32 in 5.0 mi NNE 8.1 mph - N/A   Overcast
10:15 AM 51.8 °F 51.8 °F 100% 30.32 in 7.0 mi NE 6.9 mph - N/A   Overcast
10:35 AM 51.8 °F 51.8 °F 100% 30.32 in 7.0 mi ENE 6.9 mph - N/A   Overcast
10:55 AM 53.6 °F 51.8 °F 94% 30.32 in 10.0 mi NE 8.1 mph - N/A   Overcast
11:15 AM 53.6 °F 51.8 °F 94% 30.32 in 10.0 mi NE 6.9 mph - N/A   Overcast
11:35 AM 53.6 °F 51.8 °F 94% 30.31 in 10.0 mi ENE 6.9 mph - N/A   Overcast
11:55 AM 55.4 °F 51.8 °F 88% 30.30 in 10.0 mi ENE 6.9 mph - N/A   Overcast
12:15 PM 53.6 °F 51.8 °F 94% 30.30 in 10.0 mi NE 5.8 mph - N/A   Overcast
12:35 PM 53.6 °F 51.8 °F 94% 30.30 in 10.0 mi NNE 5.8 mph - N/A   Overcast
12:55 PM 53.6 °F 51.8 °F 94% 30.29 in 10.0 mi NE 5.8 mph - N/A   Overcast
1:15 PM 53.6 °F 51.8 °F 94% 30.28 in 10.0 mi ENE 8.1 mph - N/A   Overcast
1:35 PM 53.6 °F 51.8 °F 94% 30.27 in 10.0 mi NE 8.1 mph - N/A   Overcast
1:55 PM 53.6 °F 51.8 °F 94% 30.26 in 10.0 mi NE 5.8 mph 10.4 mph N/A   Overcast
2:15 PM 53.6 °F 51.8 °F 94% 30.26 in 10.0 mi ENE 9.2 mph - N/A   Overcast
2:35 PM 53.6 °F 51.8 °F 94% 30.26 in 10.0 mi NE 6.9 mph - N/A   Overcast
2:55 PM 53.6 °F 51.8 °F 94% 30.25 in 10.0 mi ENE 5.8 mph - N/A   Overcast
3:15 PM 53.6 °F 51.8 °F 94% 30.24 in 10.0 mi ENE 6.9 mph - N/A   Overcast
3:35 PM 55.4 °F 51.8 °F 88% 30.24 in 10.0 mi NE 5.8 mph - N/A   Overcast
3:55 PM 55.4 °F 51.8 °F 88% 30.24 in 10.0 mi NE 6.9 mph - N/A   Overcast
4:15 PM 55.4 °F 51.8 °F 88% 30.24 in 10.0 mi ENE 5.8 mph - N/A   Overcast
4:35 PM 55.4 °F 51.8 °F 88% 30.24 in 10.0 mi NE 9.2 mph - N/A   Overcast
4:55 PM 53.6 °F 51.8 °F 94% 30.24 in 10.0 mi NE 6.9 mph - N/A   Overcast
5:15 PM 53.6 °F 51.8 °F 94% 30.25 in 10.0 mi North 5.8 mph - N/A   Overcast
5:35 PM 53.6 °F 51.8 °F 94% 30.25 in 10.0 mi NE 5.8 mph - N/A   Overcast
5:55 PM 53.6 °F 51.8 °F 94% 30.26 in 10.0 mi NE 4.6 mph - N/A   Overcast
6:15 PM 53.6 °F 51.8 °F 94% 30.25 in 10.0 mi NE 4.6 mph - N/A   Overcast
6:35 PM 53.6 °F 51.8 °F 94% 30.25 in 10.0 mi NE 4.6 mph - N/A   Overcast
6:55 PM 53.6 °F 51.8 °F 94% 30.26 in 10.0 mi Calm Calm - N/A   Overcast
7:15 PM 53.6 °F 51.8 °F 94% 30.26 in 10.0 mi NE 4.6 mph - N/A   Overcast
7:35 PM 53.6 °F 51.8 °F 94% 30.26 in 10.0 mi NE 3.5 mph - N/A   Overcast
7:55 PM 53.6 °F 51.8 °F 94% 30.26 in 10.0 mi NE 6.9 mph - N/A   Overcast
8:15 PM 53.6 °F 50.0 °F 88% 30.27 in 10.0 mi ENE 4.6 mph - N/A   Overcast
8:35 PM 53.6 °F 50.0 °F 88% 30.26 in 10.0 mi NE 3.5 mph - N/A   Overcast
8:55 PM 53.6 °F 50.0 °F 88% 30.26 in 10.0 mi NE 4.6 mph - N/A   Overcast
9:35 PM 51.8 °F 50.0 °F 94% 30.26 in 10.0 mi ENE 5.8 mph - N/A   Overcast
9:55 PM 51.8 °F 50.0 °F 94% 30.25 in 10.0 mi ENE 5.8 mph - N/A   Overcast
10:15 PM 51.8 °F 50.0 °F 94% 30.25 in 10.0 mi ENE 6.9 mph - N/A   Overcast
10:35 PM 51.8 °F 50.0 °F 94% 30.24 in 10.0 mi ENE 8.1 mph - N/A   Overcast
10:55 PM 51.8 °F 50.0 °F 94% 30.24 in 10.0 mi ENE 6.9 mph - N/A   Overcast
11:15 PM 51.8 °F 50.0 °F 94% 30.24 in 10.0 mi ENE 4.6 mph - N/A   Overcast
11:35 PM 51.8 °F 50.0 °F 94% 30.22 in 10.0 mi East 6.9 mph - N/A   Overcast
11:55 PM 51.8 °F 50.0 °F 94% 30.23 in 10.0 mi NE 3.5 mph - N/A   Overcast